Regional Weather Roundup
Issued by NWS Kansas City/Pleasant Hill, MO

Home | Current Version | Previous Version | Graphics & Text | Print | Product List | Glossary Off
Versions: 1 2 3 4 5 6 7 8 9 10 11 12 13 14 15 16 17 18 19 20 21 22 23 24 25 26 27 28 29 30 31 32 33 34 35 36 37 38 39 40 41 42 43 44 45 46 47 48 49 50

000
ASUS43 KEAX 311011
RWREAX

WEATHER ROUNDUP FOR EASTERN KANSAS AND NORTHWEST MISSOURI
NATIONAL WEATHER SERVICE KANSAS CITY/PLEASANT HILL MO
500 AM CDT THU JUL 31 2014

KSZ040-057-103>105-MOZ028-029-037-043-311100-
...KANSAS CITY METROPOLITAN AREA...

CITY           SKY/WX    TMP DP  RH WIND       PRES   REMARKS
K.C. INTL      PTCLDY    60  56  86 N5        30.11R
K.C. DOWNTOWN  CLEAR     64  60  87 CALM      30.09S
LEES SUMMIT    CLEAR     61  59  93 CALM      30.10S
OLATHE - IXD   CLEAR     59  58  96 NW3       30.11R
OLATHE - OJC   CLEAR     63  59  87 N3        30.10R
LAWRENCE       PTCLDY    55  52  89 NW6       30.11R

$$

MOZ001>008-011>017-020>025-030>033-038>040-044>046-053-054-311100-
...NORTHERN AND CENTRAL MISSOURI...

CITY           SKY/WX    TMP DP  RH WIND       PRES   REMARKS
ST. JOSEPH     FOG       53  52  96 CALM      30.11R VSB 1/2
MOSBY          MOSUNNY   55  55 100 CALM      30.10R
WHITEMAN AFB   CLEAR     58  52  81 SW2       30.09R
CLINTON        NOT AVBL
SEDALIA        CLEAR     60  58  92 S5        30.09S
WARSAW         NOT AVBL
MARSHALL       CLEAR     61  61 100 CALM      30.10R
CHILLICOTHE      N/A     59  55  87 CALM      30.11S
MOBERLY        CLEAR     59  55  88 CALM      30.10S
KIRKSVILLE     CLEAR     55  53  93 CALM      30.10S FOG

$$

MOZ041-047>049-056>058-063>065-088>090-097-311100-
...EASTERN AND SOUTHERN MISSOURI...

CITY           SKY/WX    TMP DP  RH WIND       PRES   REMARKS
ST. LOUIS INTL CLEAR     66  59  78 CALM      30.08R
SPIRIT OF STL  CLEAR     59  58  96 CALM      30.07R
COLUMBIA       CLEAR     61  57  87 NE5       30.09S
JEFFERSON CITY CLEAR     59  57  93 CALM      30.08S
MEXICO         CLEAR    N/A N/A N/A CALM      30.10R
HANNIBAL       CLEAR     63  59  88 CALM      30.10R
ROLLA          CLEAR     59  58  96 CALM      30.08S FOG
LEBANON        FOG       59  57  94 CALM      30.11R VSB<1/4
OSAGE BEACH    CLOUDY    57  55  94 CALM      30.09S VSB 1/4
SPRINGFIELD    CLOUDY    68  65  90 CALM      30.10R
BRANSON        FOG       66  64  94 CALM      30.10F VSB<1/4
NEVADA         FOG       59  59 100 CALM      30.11S VSB 1/4
JOPLIN         CLOUDY    65  64  97 NE5       30.09S FOG
WEST PLAINS    CLOUDY    66  63  90 CALM      30.11R

$$

IAZ060-094-KSZ022-034>040-054-083-096-NEZ052-066-093-311100-
...KANSAS...SOUTHEAST NEBRASKA AND IOWA...

CITY           SKY/WX    TMP DP  RH WIND       PRES   REMARKS
TOPEKA         PTCLDY    57  55  93 CALM      30.11S
MANHATTAN      PTCLDY    56  55  97 CALM      30.12S
EMPORIA        MOCLDY    58  58 100 W5        30.11S
CHANUTE        FOG       61  60  97 CALM      30.10S VSB 1/4
WICHITA        PTCLDY    60  58  92 NW8       30.12R FOG
OMAHA          PTCLDY    62  56  80 SE3       30.11S
LINCOLN        PTCLDY    55  53  93 CALM      30.12S
FALLS CITY     CLEAR     57  54  89 W5        30.11S
LAMONI         CLEAR     59  54  83 CALM      30.10S
DES MOINES     CLEAR     62  57  83 CALM      30.08S

$$



USA.gov is the U.S. government's official web portal to all federal, state and local government web resources and services.